Lid_Strength_Index
10 11 10 10 9 10 10 9 8 8 5 5 4 1 2 2 2 2 1 3 3 3
11 11 10 10 9 9 9 9 9 8 6 5 4 4 2 2 2 2 2 2 3 2
11 11 11 10 10 10 9 9 9 8 7 6 4 4 3 2 2 2 2 3 2 2
11 11 11 10 10 10 9 9 8 7 7 6 5 3 4 3 3 4 5 5 4 6
11 11 10 10 11 9 9 8 8 8 7 7 6 5 4 6 6 6 7 8 8 8
11 11 11 11 10 10 9 8 8 8 8 8 8 8 8 8 8 9 9 8 8 8
11 11 11 11 11 10 9 9 8 9 8 8 8 9 9 9 9 10 10 10 9 9
11 11 11 11 11 10 10 10 9 10 9 9 9 9 9 10 9 10 11 11 11 10
11 11 12 12 11 11 11 11 10 10 10 10 9 10 9 8 10 11 10 10 10 10
12 12 12 12 11 12 12 11 11 11 10 10 10 10 10 10 9 9 10 11 11 12
11 12 12 12 12 12 12 12 12 11 11 10 11 10 11 11 10 10 10 10 10 11
12 12 12 12 12 12 12 11 12 12 11 11 11 11 11 11 11 11 12 11 11 11
13 13 12 13 13 12 13 13 13 13 12 13 11 11 12 11 11 12 13 12 12 13
14 14 13 13 13 13 13 13 13 13 13 12 12 11 12 12 11 12 12 12 12 12